Location: Ku?niki
(51.4449°N, 17.8974°E)
Time: 06:59:18
(UTC+00:00)

Cosmos 1833 Rocket - Pass Details

Date: 18 September 2020
Orbit: 831 x 841 km, 71.0° (Epoch: 21 October)

Event Time Altitude Azimuth Distance (km) Brightness Sun altitude
Rises 18:15:31 0° 330° (NNW) 3,408 6.7 -13.1°
Reaches altitude 10° 18:18:30 10° 345° (NNW) 2,471 5.6 -13.5°
Maximum altitude 18:22:58 23° 37° (NE) 1,718 4.2 -14.2°
Enters shadow 18:25:59 16° 77° (ENE) 2,096 4.3 -14.6°
